Flag for U.S.A. Weather past 2 weeks in Avalon (Santa Catalina Island), California, U.S.A.

Now
66 °F

Passing clouds.


Feels Like: 66 °F
Forecast: 65 / 77 °F
Wind: 10 mph from Southwest

Location: Catalina Airport

Current Time: Jul 22, 2014 at 4:50:21 PM

Latest Report: Jul 22, 2014 at 9:51 AM


Visibility: 10 mi

Pressure: 30.05 "Hg

Humidity: 81%

Dew point: 60 °F

Location of Avalon (Santa Catalina Island)Location

Historic Weather in Avalon (Santa Catalina Island) — Graph

°F

Avalon (Santa Catalina Island) temperature yesterday

Maximum temperature yesterday: 69 °F (at 1:51 PM)
Minimum temperature yesterday: 60 °F (at 3:01 AM)
Average temperature yesterday: 63 °F

Past Weeks' High & Low Weather Summary

 TemperatureHumidityPressure
High79 °F (Jul 13, 2:51 PM)100% (Jul 12, 6:51 AM)30.10 "Hg (Jul 12, 6:51 AM)
Low57 °F (Jul 10, 3:59 AM)31% (Jul 12, 11:51 PM)29.84 "Hg (Jul 7, 6:51 PM)
Average64 °F81%29.97 "Hg
* Reported Jul 7 10:51 AM — Jul 22 9:51 AM, Avalon (Santa Catalina Island), Weather by CustomWeather, © 2014

Note: Actual official high and low records may vary slightly from our data, if they occured in-between our weather recording intervals... More about our weather records

Advertising

Avalon (Santa Catalina Island) weather history for previous 24 hours

 ConditionsComfort  
Time TempWeatherWind HumidityBarometerVisibility
9:51 AM
Jul 22
66 °FPassing clouds.10 mph81%30.05 "Hg10 mi
8:51 AM64 °FSunny.8 mph87%30.05 "Hg10 mi
7:51 AM61 °FFog.7 mph97%30.04 "Hg0 mi
6:51 AM60 °FFog.6 mph96%30.02 "Hg0 mi
5:51 AM59 °FFog.5 mph96%30.01 "Hg0 mi
4:51 AM60 °FFog.9 mph96%30.00 "Hg0 mi
3:51 AM60 °FFog.13 mph96%30.01 "Hg0 mi
2:51 AM61 °FFog.12 mph93%30.01 "Hg1 mi
1:51 AM61 °FFog.8 mph97%30.00 "Hg0 mi
12:51 AM61 °FFog.9 mph97%30.00 "Hg0 mi
11:51 PM
Jul 21
61 °FFog.9 mph93%30.00 "Hg0 mi
10:51 PM61 °FFog.9 mph97%30.01 "Hg0 mi
9:58 PM61 °FFog.12 mph97%30.05 "Hg1 mi
8:51 PM61 °FPassing clouds.12 mph93%29.99 "Hg10 mi
7:51 PM62 °FPartly sunny.14 mph90%29.98 "Hg10 mi
6:51 PM64 °FSunny.20 mph81%29.99 "Hg10 mi
5:51 PM66 °FSunny.18 mph73%29.99 "Hg10 mi
4:51 PM68 °FSunny.16 mph70%30.00 "Hg10 mi
Weather by CustomWeather, © 2014

See weather overviewHow to use our weather pages